[[{"header":{"parameterUnit":"m.s-1","parameterCategory":1,"la1":30.2991,"la2":30.254,"lo1":-89.0895,"lo2":-89.0444,"dy":0.0017,"dx":0.0017,"nx":28,"ny":28,"refTime":"2025-07-25T21:00:00:Z","depth":0,"parameterNumber":2,"parameterNumberName":"U-component_of_WINDS"},"data":[0,0,0,0,0,0,0,0,0,0,0,0,0,0,0,0,0,0,0,0,0,0,0,0,0,0,0,0,0,0,0,0,0,0,0,0,0,0,0,0,0,0,0,0,0,0,0,0,0,0,0,0,0,0,0,0,0,0,-2.3834,-2.3835,0,-2.3932,-2.3933,-2.3934,-2.3912,-2.391,-2.3908,-2.3907,-2.4003,-2.4007,-2.4011,0,0,0,0,0,0,0,0,0,0,0,0,0,-2.3624,-2.3628,-2.3834,-2.3835,-2.3836,-2.3932,-2.3933,-2.3935,-2.3912,-2.391,-2.3908,-2.3906,-2.4002,-2.4007,-2.4012,0,0,0,0,0,0,0,0,0,0,0,0,0,-2.3718,-2.3629,-2.3833,-2.3837,-2.3838,-2.3932,-2.3933,-2.3935,-2.3913,-2.391,-2.3907,-2.3905,-2.4,-2.4006,-2.4012,-2.4108,0,0,-2.4032,-2.4035,0,0,0,0,0,0,0,0,-2.3712,-2.3725,-2.3835,-2.3837,-2.3838,-2.3907,-2.3895,-2.3993,-2.3913,-2.3884,-2.3907,-2.3903,-2.3973,-2.3981,-2.4006,-2.4112,-2.4116,-2.4033,-2.4037,-2.4039,-2.4041,0,0,0,0,0,0,0,-2.3706,-2.3721,-2.3872,-2.3837,-2.3839,-2.3832,-2.3843,-2.3913,-2.3943,-2.3887,-2.3885,-2.3897,-2.3973,-2.4,-2.4008,-2.4118,-2.4032,-2.4038,-2.4042,-2.4045,-2.4308,-2.4311,0,0,0,0,0,0,-2.3698,-2.3716,-2.3869,-2.3875,-2.3767,-2.3838,-2.385,-2.3888,-2.3942,-2.3948,-2.39,-2.3896,-2.399,-2.4,-2.4011,-2.4128,-2.4039,-2.4045,-2.4049,-2.4305,-2.4309,-2.4313,0,0,0,0,0,0,-2.3694,-2.3712,-2.3865,-2.3795,-2.3814,-2.3845,-2.3888,-2.3891,-2.3917,-2.3952,-2.3957,-2.3921,-2.3988,-2.4002,-2.4085,-2.4131,-2.4048,-2.4054,-2.4302,-2.4307,-2.4311,-2.436,0,0,0,0,0,0,-2.3688,-2.3711,-2.3748,-2.3796,-2.3818,-2.3938,-2.389,-2.3895,-2.3929,-2.3925,-2.3974,-2.3979,-2.3987,-2.4075,-2.4091,-2.4138,-2.4059,-2.4298,-2.4304,-2.4309,-2.4355,-2.4366,-2.4376,0,0,0,0,0,-2.3681,-2.3756,-2.375,-2.3769,-2.3865,-2.3941,-2.3953,-2.3962,-2.3933,-2.397,-2.3993,-2.3977,-2.4123,-2.4084,-2.4101,-2.4151,-2.4295,-2.4302,-2.4309,-2.435,-2.4364,-2.4376,0,0,0,0,0,0,-2.3711,-2.3763,-2.3756,-2.385,-2.3892,-2.3937,-2.3984,-2.3976,-2.4026,-2.402,-2.4028,-2.4039,-2.4123,-2.4145,-2.41,-2.4247,-2.4204,-2.4215,-2.4229,-2.4243,-2.4253,-2.4247,-2.4064,0,0,0,0,0,-2.3729,-2.3787,-2.3828,-2.3907,-2.3929,-2.3953,-2.3986,-2.399,-2.4032,-2.4049,-2.4077,-2.4118,-2.4173,-2.4209,-2.4261,-2.4357,-2.4368,-2.44,-2.4411,-2.4419,-2.4429,-2.4483,-2.4498,-2.4336,-2.4336,-2.4336,0,0,-2.3765,-2.3801,-2.3837,-2.3914,-2.3947,-2.4006,-2.3968,-2.4031,-2.4076,-2.4058,-2.4139,-2.4161,-2.4207,-2.4297,-2.4338,-2.4318,-2.4476,-2.4428,-2.4435,-2.444,-2.4492,-2.4507,-2.4521,-2.4341,-2.434,-2.4339,0,0,-2.3863,-2.3896,-2.3966,-2.4,-2.4051,-2.4067,-2.4084,-2.4131,-2.4146,-2.4227,-2.4216,-2.4267,-2.4362,-2.4396,-2.4425,-2.4538,-2.4526,-2.4554,-2.461,-2.4662,-2.4675,-2.4686,-2.4728,-2.4742,-2.4564,-2.4564,-2.4564,0,-2.3902,-2.3993,-2.4003,-2.4069,-2.4104,-2.4093,-2.4164,-2.4196,-2.426,-2.4284,-2.4261,-2.438,-2.441,-2.4509,-2.4537,-2.4561,-2.458,-2.4549,-2.4673,-2.4684,-2.4695,-2.4734,-2.475,-2.4567,-2.4567,-2.4566,-2.4566,0,-2.4039,-2.4102,-2.4152,-2.4217,-2.4257,-2.4325,-2.4345,-2.4385,-2.4385,-2.4404,-2.4487,-2.4523,-2.4583,-2.4607,-2.4607,-2.4706,-2.4692,-2.4671,-2.4629,-2.4714,-2.4751,-2.4766,-2.4572,-2.4571,-2.457,-2.4569,0,0,-2.4157,-2.4229,-2.4247,-2.4277,-2.4333,-2.4382,-2.4449,-2.451,-2.4544,-2.4589,-2.4646,-2.4727,-2.4709,-2.4742,-2.4746,-2.4792,-2.4881,-2.4765,-2.4767,-2.4787,-2.4994,-2.501,-2.5028,-2.4873,-2.4876,-2.4879,-2.499,0,-2.4261,-2.4382,-2.4394,-2.4503,-2.4562,-2.4553,-2.4612,-2.4652,-2.4672,-2.4724,-2.4744,-2.4802,-2.4772,-2.4793,-2.4838,-2.4861,-2.4923,-2.4853,-2.4926,-2.4929,-2.4917,-2.5047,-2.5064,-2.5168,-2.5005,-2.5007,-2.5009,0,-2.4398,-2.445,-2.4565,-2.4615,-2.464,-2.4693,-2.4751,-2.48,-2.4846,-2.4857,-2.4896,-2.4894,-2.4963,-2.4919,-2.5014,-2.4966,-2.4997,-2.5013,-2.5017,-2.5025,-2.4975,-2.5059,-2.5201,-2.5217,-2.5032,-2.503,-2.5028,0,-2.4474,-2.4572,-2.4655,-2.468,-2.474,-2.4778,-2.4804,-2.4847,-2.4884,-2.4934,-2.4958,-2.5014,-2.5045,-2.5089,-2.5103,-2.5068,-2.5198,-2.5154,-2.5209,-2.5209,-2.5237,-2.5235,-2.5387,-2.5256,-2.5255,-2.5255,-2.5255,0,-2.4589,-2.466,-2.469,-2.4741,-2.482,-2.4833,-2.4911,-2.4935,-2.4974,-2.5029,-2.5024,-2.5075,-2.5089,-2.5143,-2.5154,-2.5232,-2.5246,-2.5256,-2.5258,-2.5257,-2.5256,-2.5278,-2.5272,-2.5259,-2.5258,-2.5257,-2.5257,0,-2.4688,-2.4711,-2.48,-2.485,-2.4865,-2.4921,-2.4964,-2.5012,-2.5031,-2.5101,-2.5117,-2.5147,-2.521,-2.5228,-2.5302,-2.531,-2.5403,-2.5397,-2.5388,-2.5388,-2.5443,-2.5438,-2.5614,-2.5639,-2.549,-2.5492,-2.5493,0,-2.476,-2.4815,-2.4872,-2.491,-2.4938,-2.4998,-2.5036,-2.5051,-2.5091,-2.5148,-2.519,-2.5253,-2.5304,-2.5405,-2.5432,-2.549,-2.5487,-2.5545,-2.5495,-2.5493,-2.5489,-2.5486,-2.5492,-2.5554,-2.5556,-2.5557,-2.5558,0,-2.4886,-2.4895,-2.4952,-2.5013,-2.5059,-2.5107,-2.5153,-2.5184,-2.5205,-2.525,-2.5316,-2.5356,-2.5434,-2.5496,-2.5555,-2.5581,-2.5574,-2.5573,-2.5589,-2.5589,-2.5582,-2.5588,-2.5415,-2.5569,-2.5568,-2.5567,-2.5567,-2.5566,-2.4974,-2.5024,-2.5073,-2.5136,-2.5173,-2.5217,-2.5266,-2.5292,-2.5348,-2.5415,-2.5419,-2.5491,-2.5536,-2.5615,-2.5644,-2.5699,-2.5682,-2.5705,-2.5711,-2.5716,-2.5722,-2.5573,-2.571,-2.5709,-2.5709,-2.5709,-2.5709,0,-2.5101,-2.5133,-2.5191,-2.5258,-2.5308,-2.5299,-2.535,-2.5392,-2.5456,-2.5499,-2.5551,-2.5627,-2.5688,-2.5721,-2.5782,-2.582,-2.5818,-2.5836,-2.5833,-2.584,-2.5733,-2.5714,-2.5836,-2.5836,-2.5836,-2.5836,-2.5836,-2.5836,-2.5174,-2.5257,-2.5273,-2.5375,-2.5406,-2.5478,-2.5508,-2.5549,-2.5584,-2.567,-2.5722,-2.5744,-2.5784,-2.5848,-2.5903,-2.5911,-2.5934,-2.5954,-2.596,-2.586,-2.5847,-2.5835,-2.5817,-2.5959,-2.5959,-2.6063,-2.6064,-2.6064]},{"header":{"parameterUnit":"m.s-1","parameterCategory":1,"la1":30.2991,"la2":30.254,"lo1":-89.0895,"lo2":-89.0444,"dy":0.0017,"dx":0.0017,"nx":28,"ny":28,"refTime":"2025-07-25T21:00:00:Z","depth":0,"parameterNumber":3,"parameterNumberName":"V-component_of_WINDS"},"data":[0,0,0,0,0,0,0,0,0,0,0,0,0,0,0,0,0,0,0,0,0,0,0,0,0,0,0,0,0,0,0,0,0,0,0,0,0,0,0,0,0,0,0,0,0,0,0,0,0,0,0,0,0,0,0,0,0,0,3.753,3.7531,0,3.7576,3.7577,3.7577,3.7609,3.7609,3.7609,3.761,3.7653,3.7654,3.7655,0,0,0,0,0,0,0,0,0,0,0,0,0,3.747,3.7471,3.753,3.7531,3.7531,3.7576,3.7577,3.7577,3.7609,3.7609,3.7609,3.761,3.7653,3.7654,3.7655,0,0,0,0,0,0,0,0,0,0,0,0,0,3.7504,3.7471,3.753,3.7552,3.7555,3.7576,3.7577,3.7577,3.7609,3.7609,3.761,3.761,3.7652,3.7654,3.7655,3.7656,0,0,3.7659,3.766,0,0,0,0,0,0,0,0,3.7502,3.7506,3.7549,3.7551,3.7554,3.7587,3.7571,3.7604,3.7609,3.7588,3.761,3.761,3.7631,3.7634,3.7641,3.7658,3.766,3.7659,3.766,3.7661,3.7661,0,0,0,0,0,0,0,3.7499,3.7504,3.7548,3.7549,3.7552,3.756,3.7566,3.7578,3.7607,3.759,3.7593,3.7598,3.7632,3.764,3.7643,3.7661,3.7659,3.7661,3.7662,3.7662,3.7685,3.7684,0,0,0,0,0,0,3.7494,3.7502,3.7547,3.7549,3.7528,3.7561,3.7567,3.7576,3.7607,3.7612,3.7597,3.7599,3.7638,3.7641,3.7644,3.765,3.7661,3.7662,3.7663,3.7685,3.7685,3.7684,0,0,0,0,0,0,3.7492,3.7497,3.7545,3.7526,3.7533,3.7562,3.7572,3.7577,3.7585,3.7612,3.7617,3.76,3.7638,3.7642,3.7654,3.7652,3.7663,3.7664,3.7685,3.7685,3.7684,3.766,0,0,0,0,0,0,3.749,3.7497,3.7497,3.7526,3.7534,3.7554,3.7571,3.7577,3.7588,3.759,3.7616,3.7621,3.7639,3.7652,3.7656,3.7654,3.7665,3.7685,3.7685,3.7685,3.7661,3.7659,3.7657,0,0,0,0,0,3.7488,3.7486,3.7497,3.7502,3.7535,3.7553,3.7558,3.7579,3.7587,3.7588,3.7607,3.762,3.7652,3.7653,3.7657,3.7656,3.7686,3.7685,3.7685,3.7662,3.7659,3.7657,0,0,0,0,0,0,3.7454,3.749,3.7502,3.751,3.7529,3.7559,3.756,3.7575,3.7591,3.7592,3.7618,3.7623,3.7633,3.7646,3.7646,3.7661,3.7671,3.7671,3.7652,3.7649,3.7647,3.7644,3.7666,0,0,0,0,0,3.7448,3.746,3.7491,3.7495,3.7504,3.7531,3.7539,3.7555,3.7575,3.7582,3.7601,3.7619,3.7634,3.7642,3.7657,3.7663,3.7671,3.7665,3.7663,3.7661,3.7661,3.7669,3.7667,3.7683,3.7683,3.7683,0,0,3.7434,3.7456,3.7461,3.7489,3.7505,3.7518,3.7537,3.7548,3.7558,3.7583,3.7597,3.7611,3.7633,3.7644,3.7649,3.7654,3.7659,3.766,3.7659,3.766,3.7668,3.7667,3.7665,3.7682,3.7682,3.7682,0,0,3.7416,3.7433,3.744,3.7457,3.7482,3.75,3.7502,3.7531,3.7543,3.7557,3.7577,3.7589,3.7613,3.7629,3.764,3.7633,3.7647,3.7637,3.7626,3.7633,3.7632,3.7631,3.763,3.763,3.7637,3.7637,3.7637,0,3.7395,3.7415,3.7441,3.7453,3.7465,3.7492,3.7499,3.7514,3.7542,3.755,3.7557,3.759,3.7606,3.7622,3.7621,3.7629,3.7633,3.7633,3.763,3.7629,3.7629,3.7629,3.7628,3.7635,3.7636,3.7636,3.7636,0,3.739,3.7404,3.7407,3.7436,3.7449,3.7458,3.7486,3.7496,3.7512,3.753,3.7546,3.7567,3.7588,3.7593,3.7607,3.7612,3.7615,3.7625,3.7636,3.7626,3.7626,3.7626,3.7634,3.7634,3.7634,3.7635,0,0,3.7348,3.7395,3.7396,3.7411,3.7443,3.7455,3.7467,3.7489,3.7498,3.7518,3.7529,3.7551,3.7563,3.7575,3.7592,3.7598,3.7595,3.7608,3.7609,3.7606,3.7604,3.7597,3.7596,3.7605,3.7605,3.7605,3.7603,0,3.7336,3.736,3.7385,3.74,3.7415,3.7442,3.7453,3.7475,3.7493,3.7508,3.7528,3.7544,3.7556,3.7565,3.7573,3.7593,3.7595,3.7594,3.7616,3.7616,3.761,3.7596,3.7587,3.7585,3.7603,3.7603,3.7603,0,3.7324,3.7345,3.7362,3.7397,3.7404,3.7413,3.7438,3.7452,3.7478,3.7491,3.7508,3.7527,3.7542,3.7552,3.7574,3.7573,3.7584,3.7596,3.7597,3.7599,3.7609,3.76,3.7584,3.7584,3.7603,3.7603,3.7603,0,3.7294,3.7327,3.7343,3.7355,3.7394,3.7401,3.7418,3.7444,3.7458,3.7479,3.7489,3.7511,3.7523,3.7541,3.7566,3.757,3.7586,3.7597,3.7598,3.7598,3.76,3.7599,3.7587,3.7606,3.7606,3.7606,3.7606,0,3.7278,3.7288,3.733,3.734,3.7353,3.7382,3.7394,3.7413,3.7438,3.7452,3.7476,3.7489,3.7521,3.7538,3.7558,3.7575,3.758,3.7592,3.7597,3.759,3.7589,3.7597,3.7598,3.7606,3.7606,3.7606,3.7606,0,3.7246,3.7275,3.7294,3.7332,3.7342,3.735,3.7382,3.7393,3.7415,3.7433,3.7439,3.7472,3.7494,3.7521,3.755,3.7564,3.758,3.7587,3.7571,3.7575,3.7575,3.7575,3.7568,3.7569,3.7586,3.7586,3.7586,0,3.7234,3.7243,3.7283,3.7295,3.7312,3.7331,3.7346,3.7377,3.7391,3.7424,3.7431,3.7456,3.7477,3.7511,3.7537,3.7561,3.757,3.7566,3.7573,3.7567,3.7572,3.7571,3.7573,3.7564,3.7563,3.7563,3.7563,0,3.721,3.7225,3.7246,3.7273,3.7291,3.7313,3.7336,3.7345,3.7381,3.7396,3.742,3.7437,3.747,3.7494,3.7522,3.754,3.7558,3.7561,3.7563,3.7555,3.7547,3.7554,3.7567,3.756,3.7561,3.7561,3.7561,3.7561,3.7188,3.7199,3.723,3.7253,3.7275,3.7298,3.7311,3.7336,3.7357,3.7387,3.7404,3.7428,3.7457,3.7497,3.7515,3.7535,3.7541,3.7543,3.7543,3.7544,3.7543,3.7544,3.754,3.754,3.754,3.754,3.754,0,3.7167,3.7189,3.7211,3.7245,3.7264,3.7282,3.731,3.7324,3.7346,3.7372,3.7394,3.7423,3.7448,3.7479,3.7506,3.7516,3.7525,3.7522,3.7522,3.7527,3.7534,3.7531,3.7515,3.7515,3.7515,3.7515,3.7515,3.7515,3.7158,3.7178,3.7197,3.7229,3.7251,3.7276,3.7291,3.7313,3.7335,3.7367,3.7389,3.7409,3.7438,3.7468,3.7493,3.7501,3.7511,3.7506,3.7516,3.7523,3.7525,3.7527,3.7524,3.7507,3.7507,3.7507,3.7507,3.7507]}]]